GW2624 Weather Reports


time (UTC)temp
C
wind
direction
speed
KPH
gust
KPH
rain 1hr
cm
rain 24hr
cm
rain mn
cm
humidity
%
barometer
mb
20260905092903 15 139 0.0 0.0 0.00 0.03 0.00 76 1006.8
20260905092404 15 90 0.0 0.0 0.00 0.03 0.00 75 1006.8
20260905091404 16 69 0.0 0.0 0.00 0.03 0.00 74 1007.0
20260905090403 16 139 0.0 0.0 0.00 0.03 0.00 73 1006.9
20260905085404 16 139 0.0 0.0 0.00 0.03 0.00 72 1006.8
20260905084904 16 139 0.0 0.0 0.00 0.03 0.00 72 1006.8
20260905081904 16 139 0.0 0.0 0.00 0.03 0.00 70 1006.8
20260905081404 17 139 0.0 0.0 0.00 0.03 0.00 70 1006.8
20260905080904 17 139 0.0 0.0 0.00 0.03 0.00 69 1006.9
20260905080403 17 139 0.0 0.0 0.00 0.03 0.00 68 1006.9
20260905075404 17 139 0.0 3.2 0.00 0.03 0.00 68 1006.9
20260905073404 17 139 0.0 1.6 0.00 0.03 0.00 66 1007.0
20260905072904 17 139 0.0 4.8 0.00 0.03 0.00 66 1007.0
20260905072404 17 139 1.6 4.8 0.00 0.03 0.00 66 1007.0
20260905071404 17 139 0.0 0.0 0.00 0.03 0.00 66 1007.0
20260905065404 17 139 0.0 3.2 0.00 0.03 0.00 68 1007.0
20260905064404 17 139 0.0 1.6 0.00 0.03 0.00 68 1007.0
20260905063904 17 139 0.0 3.2 0.00 0.03 0.00 68 1007.0
20260905063404 17 139 1.6 3.2 0.00 0.03 0.00 67 1006.9
20260905062903 17 139 0.0 0.0 0.00 0.03 0.00 67 1007.0
20260905061904 17 139 0.0 1.6 0.00 0.03 0.00 65 1007.0
20260905055904 18 139 0.0 0.0 0.00 0.03 0.03 64 1006.8
20260905054904 18 139 0.0 0.0 0.00 0.03 0.03 63 1006.7
20260905053404 18 139 1.6 4.8 0.00 0.03 0.03 62 1006.7
20260905051904 19 145 3.2 4.8 0.00 0.03 0.03 61 1006.7
20260905051404 19 144 1.6 4.8 0.00 0.03 0.03 61 1006.8
20260905050903 19 140 3.2 4.8 0.00 0.03 0.03 60 1006.9
20260905050404 19 145 3.2 8.0 0.00 0.03 0.03 60 1006.9
20260905045904 20 139 4.8 8.0 0.00 0.03 0.03 60 1007.0
20260905044903 20 144 4.8 8.0 0.00 0.03 0.03 59 1007.1
20260905043904 20 138 1.6 4.8 0.00 0.03 0.03 58 1007.2
20260905042903 20 138 0.0 4.8 0.00 0.03 0.03 57 1007.3
20260905041903 21 148 3.2 4.8 0.00 0.03 0.03 56 1007.4
20260905041404 21 123 0.0 4.8 0.00 0.03 0.03 56 1007.5
20260905035904 21 148 0.0 4.8 0.00 0.03 0.03 55 1007.6
20260905034904 21 148 3.2 8.0 0.00 0.03 0.03 54 1007.7
20260905033904 21 138 3.2 9.7 0.00 0.03 0.03 55 1007.7
20260905032403 21 148 3.2 8.0 0.00 0.03 0.03 55 1007.7
20260905031404 21 148 3.2 9.7 0.00 0.03 0.03 55 1007.6
20260905030404 21 155 3.2 8.0 0.00 0.03 0.03 55 1007.4
20260905025904 21 143 1.6 8.0 0.00 0.03 0.03 56 1007.3
20260905025404 21 151 3.2 11.3 0.00 0.03 0.03 56 1007.2
20260905024904 21 134 6.4 11.3 0.00 0.03 0.03 56 1007.0
20260905024404 21 145 3.2 9.7 0.00 0.03 0.03 56 1006.9
20260905023903 21 141 3.2 14.5 0.00 0.03 0.03 56 1006.8
20260905022404 21 141 9.7 22.5 0.00 0.03 0.03 56 1006.5
20260905021404 21 139 6.4 19.3 0.00 0.03 0.03 56 1006.4
20260905020904 21 140 6.4 19.3 0.00 0.03 0.03 56 1006.3
20260905015904 22 130 9.7 19.3 0.00 0.03 0.03 56 1006.3
20260905014404 21 140 11.3 22.5 0.00 0.03 0.03 56 1006.4
20260905012404 22 137 12.9 32.2 0.00 0.03 0.03 56 1006.1
20260905011404 22 147 9.7 32.2 0.00 0.03 0.03 55 1006.1
20260905010904 23 160 11.3 40.2 0.00 0.03 0.03 53 1006.0
20260905010404 24 143 19.3 40.2 0.00 0.03 0.03 49 1006.0
20260905005903 25 161 8.0 12.9 0.00 0.03 0.03 41 1005.8
20260905004903 26 192 1.6 11.3 0.00 0.03 0.03 38 1005.2
20260905004403 26 171 3.2 11.3 0.00 0.03 0.03 38 1005.1
20260905003904 26 170 1.6 9.7 0.00 0.03 0.03 38 1005.0
20260905002904 26 239 3.2 11.3 0.00 0.03 0.03 38 1004.9
20260905002404 26 150 4.8 11.3 0.00 0.03 0.03 38 1004.9
20260905001904 26 179 1.6 4.8 0.00 0.03 0.03 38 1004.8
20260905001404 26 185 1.6 4.8 0.00 0.03 0.03 38 1004.8
20260905000404 26 156 3.2 14.5 0.00 0.03 0.03 37 1004.7
20260904234404 27 167 4.8 11.3 0.00 0.03 0.03 37 1004.5
20260904233904 27 183 3.2 11.3 0.00 0.03 0.03 37 1004.5
20260904232904 27 161 3.2 11.3 0.00 0.03 0.03 36 1004.5
20260904230903 27 175 4.8 12.9 0.00 0.03 0.03 35 1004.5
20260904230404 27 162 3.2 11.3 0.00 0.03 0.03 35 1004.3
20260904225905 27 190 3.2 12.9 0.00 0.03 0.03 34 1004.3
20260904225404 27 164 3.2 12.9 0.00 0.03 0.03 34 1004.3
20260904224405 28 216 3.2 14.5 0.00 0.03 0.03 32 1004.3
20260904223905 28 136 3.2 14.5 0.00 0.03 0.03 31 1004.2
20260904222905 29 175 3.2 11.3 0.00 0.03 0.03 32 1004.1
20260904222405 29 248 4.8 11.3 0.00 0.03 0.03 31 1004.1
20260904221905 29 217 4.8 11.3 0.00 0.03 0.03 32 1004.1
20260904220905 29 199 4.8 20.9 0.00 0.03 0.03 31 1004.1
20260904215405 28 239 3.2 19.3 0.00 0.03 0.03 34 1004.1
20260904214906 28 157 3.2 19.3 0.00 0.03 0.03 33 1004.2
20260904214404 28 133 6.4 19.3 0.00 0.03 0.03 33 1004.4
20260904212405 27 216 4.8 9.7 0.00 0.03 0.03 36 1004.4
20260904210905 27 130 3.2 4.8 0.00 0.03 0.03 37 1004.7
20260904204905 27 151 1.6 4.8 0.00 0.03 0.03 37 1005.1
20260904200405 26 27 3.2 11.3 0.00 0.03 0.03 40 1006.0
20260904195405 27 113 3.2 8.0 0.00 0.03 0.03 41 1006.2
20260904194405 26 57 1.6 11.3 0.00 0.03 0.03 43 1006.4
20260904193905 26 291 4.8 11.3 0.00 0.03 0.03 43 1006.5
20260904193405 26 131 4.8 8.0 0.00 0.03 0.03 42 1006.5
20260904192405 26 191 3.2 8.0 0.00 0.03 0.03 45 1006.6
20260904191405 25 289 3.2 4.8 0.00 0.03 0.03 45 1006.8
20260904190905 25 281 3.2 4.8 0.00 0.03 0.03 43 1006.9
20260904185905 25 134 1.6 11.3 0.00 0.03 0.03 44 1007.1
20260904185405 25 134 4.8 11.3 0.00 0.03 0.03 43 1007.2
20260904184405 25 306 1.6 4.8 0.00 0.03 0.03 45 1007.3
20260904183905 25 245 1.6 4.8 0.00 0.03 0.03 47 1007.3
20260904182405 24 200 1.6 4.8 0.00 0.03 0.03 46 1007.4
20260904181405 24 298 1.6 4.8 0.00 0.03 0.03 46 1007.5
20260904175405 23 121 1.6 4.8 0.00 0.03 0.03 49 1007.8
20260904174405 23 194 1.6 4.8 0.00 0.03 0.03 49 1007.8
20260904173404 23 243 1.6 4.8 0.00 0.03 0.03 49 1007.6
20260904172905 23 248 1.6 4.8 0.00 0.03 0.03 49 1007.6
20260904172405 23 233 1.6 4.8 0.00 0.03 0.03 50 1007.6
20260904171405 23 173 1.6 4.8 0.00 0.03 0.03 50 1007.5
20260904170405 23 218 1.6 4.8 0.00 0.03 0.03 49 1007.4
20260904164904 23 40 1.6 4.8 0.00 0.03 0.03 51 1007.3
20260904163905 23 19 1.6 3.2 0.00 0.03 0.03 52 1007.4
20260904163406 23 309 1.6 4.8 0.00 0.03 0.03 52 1007.4
20260904162905 22 27 1.6 4.8 0.00 0.03 0.03 52 1007.5
20260904162405 22 334 1.6 3.2 0.00 0.03 0.03 52 1007.4
20260904161404 22 107 1.6 4.8 0.00 0.03 0.03 56 1007.4
20260904160404 21 195 1.6 4.8 0.00 0.03 0.03 57 1007.5
20260904154405 19 142 1.6 8.0 0.00 0.03 0.03 70 1007.5
20260904152905 18 135 0.0 0.0 0.00 0.03 0.03 76 1007.4
20260904152405 18 135 0.0 0.0 0.00 0.03 0.03 75 1007.4
20260904150904 18 135 0.0 0.0 0.00 0.03 0.03 76 1007.3
20260904150405 18 135 0.0 1.6 0.00 0.03 0.03 74 1007.3
20260904145405 18 135 0.0 3.2 0.00 0.03 0.03 73 1007.3
20260904143905 18 134 1.6 4.8 0.00 0.03 0.03 74 1007.1
20260904142905 17 142 0.0 3.2 0.00 0.03 0.03 76 1007.1
20260904140905 17 140 0.0 4.8 0.00 0.03 0.03 76 1007.1
20260904140405 17 140 0.0 4.8 0.00 0.03 0.03 75 1007.2
20260904133405 17 154 3.2 4.8 0.00 0.03 0.03 76 1006.8
20260904132905 17 138 1.6 8.0 0.00 0.03 0.03 75 1006.8
20260904132405 17 147 1.6 8.0 0.00 0.03 0.03 76 1006.7
20260904130905 17 132 1.6 4.8 0.00 0.03 0.03 76 1006.6
20260904125905 17 150 3.2 4.8 0.00 0.03 0.03 76 1006.5
20260904125405 17 143 1.6 4.8 0.00 0.03 0.03 77 1006.4
20260904124905 17 143 0.0 3.2 0.00 0.03 0.03 76 1006.3
20260904120905 17 147 1.6 4.8 0.03 0.03 0.03 78 1006.1
20260904120405 17 145 1.6 4.8 0.03 0.03 0.03 78 1006.1
20260904115405 17 59 3.2 8.0 0.03 0.03 0.03 77 1005.9
20260904114405 17 70 1.6 8.0 0.03 0.03 0.03 76 1006.0
20260904113405 17 147 3.2 8.0 0.00 0.00 0.00 74 1005.9
20260904112405 18 135 1.6 9.7 0.00 0.00 0.00 72 1005.8
20260904111904 18 142 1.6 9.7 0.00 0.00 0.00 71 1005.8
20260904111404 18 144 3.2 11.3 0.00 0.00 0.00 70 1005.8
20260904104405 18 135 1.6 4.8 0.00 0.00 0.00 71 1005.5
20260904103405 18 132 1.6 4.8 0.00 0.00 0.00 72 1005.5
20260904101905 18 132 0.0 4.8 0.00 0.00 0.00 70 1005.6
20260904100905 18 135 1.6 8.0 0.00 0.00 0.00 71 1005.6